This is the latest recevied weather packets stored in our database for station/object WX7FGZ-6. If no packets are shown the sender has not sent any weather packets the latest 10 day(s).
| Time | Temp. | Humidity | Pressure | Rain* | Wind** | Luminosity | Snow |
|---|---|---|---|---|---|---|---|
| 1777946009 | -1.11° C | 67% | 1015.1 hPa | 0 mm | - | - | - |
| 1777945709 | -1.11° C | 68% | 1015.1 hPa | 0 mm | - | - | - |
| 1777945409 | -1.11° C | 67% | 1015.1 hPa | 0 mm | - | - | - |
| 1777945109 | -0.56° C | 67% | 1014.8 hPa | 0 mm | - | - | - |
| 1777944809 | -0.56° C | 67% | 1014.9 hPa | 0 mm | - | - | - |
| 1777944509 | -0.56° C | 66% | 1015.1 hPa | 0 mm | - | - | - |
| 1777944209 | -0.56° C | 66% | 1015.1 hPa | 0 mm | - | - | - |
| 1777943909 | 0° C | 67% | 1015.2 hPa | 0 mm | - | - | - |
| 1777943609 | 0° C | 67% | 1015.3 hPa | 0 mm | - | - | - |
| 1777943309 | 0.56° C | 66% | 1015.1 hPa | 0 mm | - | - | - |
| 1777943009 | 0.56° C | 67% | 1015.1 hPa | 0 mm | - | - | - |
| 1777942709 | 1.11° C | 66% | 1016 hPa | 0 mm | - | - | - |
| 1777942409 | 1.11° C | 66% | 1016 hPa | 0 mm | - | - | - |
| 1777942109 | 1.11° C | 65% | 1016.2 hPa | 0 mm | - | - | - |
| 1777941809 | 1.67° C | 66% | 1016 hPa | 0 mm | - | - | - |
| 1777941509 | 1.67° C | 66% | 1015.9 hPa | 0 mm | - | - | - |
| 1777941209 | 1.67° C | 66% | 1016 hPa | 0 mm | - | - | - |
| 1777940909 | 1.67° C | 64% | 1016.1 hPa | 0 mm | - | - | - |
| 1777940608 | 2.22° C | 66% | 1016.1 hPa | 0 mm | - | - | - |
| 1777940308 | 1.67° C | 66% | 1016.2 hPa | 0 mm | - | - | - |
| 1777939813 | 2.22° C | 64% | 1016.3 hPa | 0 mm | - | - | - |
| 1777939513 | 2.22° C | 64% | 1016.2 hPa | 0 mm | - | - | - |
| 1777939213 | 2.22° C | 64% | 1016.2 hPa | 0 mm | - | - | - |
| 1777938913 | 2.22° C | 64% | 1016.3 hPa | 0 mm | - | - | - |
| 1777938560 | 2.22° C | 63% | 1016.2 hPa | 0 mm | - | - | - |
* Rain latest hour (hover to see other rain measurements)
** Current wind speed in m/s (hover to see current wind gust speed)